Regional Weather Roundup
Issued by NWS

Home | Current Version | Previous Version | Text Only | Print | Product List | Glossary On
Versions: 1 2 3 4 5 6 7 8 9 10 11 12 13 14 15 16 17 18 19 20 21 22 23 24 25 26 27 28 29 30 31 32 33 34 35 36 37 38 39 40 41 42 43 44 45 46 47 48 49 50
000
ASUS44 KFWD 281815
RWRTX
NORTH TEXAS HOURLY WEATHER ROUNDUP
NATIONAL WEATHER SERVICE FORT WORTH TX
100 PM CDT TUE MAR 28 2017

NOTE: "FAIR" INDICATES FEW OR NO CLOUDS BELOW 12,000 FEET WITH NO
SIGNIFICANT WEATHER AND/OR OBSTRUCTIONS TO VISIBILITY.

TXZ118-119-281900-
DALLAS/FORT WORTH METROPLEX

CITY           SKY/WX    TMP DP  RH WIND       PRES   REMARKS
DFW AIRPORT    CLOUDY    75  65  70 SE15      29.82F
6HR MIN TEMP:  63; 6HR MAX TEMP:  75; 6HR PCP: TRACE;

DALLAS LOVE    CLOUDY    76  64  66 SE22      29.83F
6HR MIN TEMP:  64; 6HR MAX TEMP:  76;

FTW MEACHAM    CLOUDY    72  63  73 E8        29.82F
6HR MIN TEMP:  63; 6HR MAX TEMP:  72; 6HR PCP: TRACE;

DAL-EXECUTIVE  CLOUDY    75  67  76 E15G22    29.83F
6HR MIN TEMP:  62; 6HR MAX TEMP:  75;

FTW-ALLIANCE   CLOUDY    71  63  75 E13       29.83F
6HR MIN TEMP:  61; 6HR MAX TEMP:  71;

FTW-NAS-JRB    CLOUDY    71  64  78 SE8       29.83F
6HR MIN TEMP:  63; 6HR MAX TEMP:  71;

FTW-SPINKS     CLOUDY    73  66  78 E8        29.83F FOG
ARLINGTON      CLOUDY    73  65  75 E16G24    29.82F
6HR MIN TEMP:  62; 6HR MAX TEMP:  73; 6HR PCP: TRACE;

GRAND PRAIRIE  MOSUNNY   73  64  73 E13G20    29.85F
MESQUITE       CLOUDY    72  66  83 SE15      29.87F FOG
LANCASTER      MOSUNNY   74  67  78 E16       29.85F
6HR MIN TEMP:  60; 6HR MAX TEMP:  74;

$$

TXZ091>094-102>105-117-120-121-131>134-281900-
NORTH CENTRAL TEXAS

CITY           SKY/WX    TMP DP  RH WIND       PRES   REMARKS
SHRMAN/DENISON MOSUNNY   67  60  78 E12       29.88F
6HR MIN TEMP:  55; 6HR MAX TEMP:  67;

GAINESVILLE    CLOUDY    69  59  72 E13       29.87F
6HR MIN TEMP:  55; 6HR MAX TEMP:  69;

BOWIE          CLOUDY    69  61  74 E8        29.83F
6HR MIN TEMP:  58; 6HR MAX TEMP:  69;

BRIDGEPORT     CLOUDY    66  60  81 E9G17     29.84F
6HR MIN TEMP:  58; 6HR MAX TEMP:  67;

DECATUR        CLOUDY    67  61  79 E12       29.83F
6HR MIN TEMP:  58; 6HR MAX TEMP:  68;

DENTON         CLOUDY    71  63  75 E15       29.83F
6HR MIN TEMP:  59; 6HR MAX TEMP:  71;

MCKINNEY       CLOUDY    73  65  75 SE10      29.85F
6HR MIN TEMP:  58; 6HR MAX TEMP:  73;

BONHAM         CLOUDY    68  61  77 E12       29.90F
GREENVILLE     PTSUNNY   77  61  57 SE12G18   29.88F
ROCKWALL       CLOUDY    73  64  73 SE9G21    29.87F
6HR MIN TEMP:  61; 6HR MAX TEMP:  76;

TERRELL        PTSUNNY   76  64  66 SE13      29.86F
6HR MIN TEMP:  63; 6HR MAX TEMP:  75;

WAXAHACHIE     CLOUDY    72  68  88 SE8       29.85F FOG
6HR MIN TEMP:  60; 6HR MAX TEMP:  73;

CLEBURNE       PTSUNNY   73  70  88 SE16      29.83F FOG
GRANBURY       CLOUDY    73  65  78 E10       29.82F
6HR MIN TEMP:  63; 6HR MAX TEMP:  73;

$$

TXZ083>090-098>101-113>116-127>130-139>142-154-155-281900-
WESTERN NORTH TEXAS

CITY           SKY/WX    TMP DP  RH WIND       PRES   REMARKS
WICHITA FALLS  CLOUDY    67  57  70 E17       29.81F
6HR MIN TEMP:  55; 6HR MAX TEMP:  68; 6HR PCP: TRACE;

WF-KICKAPOO    CLOUDY    68  58  70 E14G22    29.81F
6HR MIN TEMP:  56; 6HR MAX TEMP:  68;

VERNON         PTSUNNY   65  50  59 E13       29.82F
6HR MIN TEMP:  53; 6HR MAX TEMP:  65;

ABILENE        CLOUDY    72  63  73 SE16      29.76F
6HR MIN TEMP:  61; 6HR MAX TEMP:  72;

ABILENE-DYESS  CLOUDY    76  64  65 S18G24    29.73F
6HR MIN TEMP:  65; 6HR MAX TEMP:  76;

GRAHAM         CLOUDY    68  63  83 E10       29.79F
6HR MIN TEMP:  60; 6HR MAX TEMP:  68;

BRECKENRIDGE   CLOUDY    71  63  75 E12       29.77F
6HR MIN TEMP:  62; 6HR MAX TEMP:  71;

CISCO          CLOUDY    72  64  78 SE16G23   29.77F
RANGER         CLOUDY    70  63  78 SE13      29.78F
MINERAL WELLS  CLOUDY    70  63  78 SE14G22   29.80F
6HR MIN TEMP:  61; 6HR MAX TEMP:  72; 6HR PCP: TRACE;

STEPHENVILLE   CLOUDY    72  65  80 SE14      29.82F
6HR MIN TEMP:  60; 6HR MAX TEMP:  72;

COMANCHE       CLOUDY    71  66  84 SE13G21   29.79F
6HR MIN TEMP:  62; 6HR MAX TEMP:  72;

BROWNWOOD      CLOUDY    73  64  73 SE15G25   29.76F HAZE
COLEMAN        CLOUDY    73  63  68 S18G25    29.76F
6HR MIN TEMP:  66; 6HR MAX TEMP:  73;

$$

TXZ143>147-156>162-174-175-281900-
CENTRAL TEXAS

CITY           SKY/WX    TMP DP  RH WIND       PRES   REMARKS
WACO           PTSUNNY   78  67  68 SE17G25   29.79F
6HR MIN TEMP:  69; 6HR MAX TEMP:  80; 6HR PCP: TRACE;

WACO-TSTC      MOSUNNY   81  66  61 SE10G18   29.81
WACO-MCGREGOR  PTSUNNY   79  70  74 SE17G23   29.80F
6HR MIN TEMP:  68; 6HR MAX TEMP:  79; 6HR PCP:  0.01;

HILLSBORO      CLOUDY    75  69  82 SE8       29.82F
6HR MIN TEMP:  63; 6HR MAX TEMP:  75;

CORSICANA      CLOUDY    78  69  73 SE9       29.86F
6HR MIN TEMP:  67; 6HR MAX TEMP:  78;

MEXIA          PTSUNNY   78  66  66 SE14G25   29.83F
6HR MIN TEMP:  67; 6HR MAX TEMP:  79;

HEARNE         MOSUNNY   80  68  66 SE13G20   29.84F
6HR MIN TEMP:  68; 6HR MAX TEMP:  80;

CAMERON        PTSUNNY   81  67  61 SE12G21   29.81F
6HR MIN TEMP:  68; 6HR MAX TEMP:  82;

TEMPLE         PTSUNNY   77  69  76 SE16      29.80F
6HR MIN TEMP:  68; 6HR MAX TEMP:  79;

KILLEEN        PTSUNNY   77  66  70 SE20      29.78F
6HR MIN TEMP:  67; 6HR MAX TEMP:  77; 6HR PCP:  0.01;

KILLEEN-SKYLRK CLOUDY    79  68  69 SE16G23   29.79F
6HR MIN TEMP:  68; 6HR MAX TEMP:  79; 6HR PCP: TRACE;

FORT HOOD      CLOUDY    77  66  69 SE16G22   29.76F
6HR MIN TEMP:  67; 6HR MAX TEMP:  77; 6HR PCP: TRACE;

GATESVILLE     MOSUNNY   77  66  69 SE10G20   29.81F
HAMILTON       CLOUDY    74  65  73 SE21      29.79F
6HR MIN TEMP:  67; 6HR MAX TEMP:  75;

LAMPASAS       PTSUNNY   76  68  77 SE14G20   29.78F
6HR MIN TEMP:  68; 6HR MAX TEMP:  76;

$$

TXZ095>097-106>112-122>126-135>138-148>153-164>167-281900-
EAST TEXAS

CITY           SKY/WX    TMP DP  RH WIND       PRES   REMARKS
PARIS          CLOUDY    70  61  73 SE10      29.93F
6HR MIN TEMP:  57; 6HR MAX TEMP:  70;

SULPHUR SPRNGS PTSUNNY   74  64  69 SE9       29.92F
6HR MIN TEMP:  60; 6HR MAX TEMP:  75;

MOUNT PLEASANT MOSUNNY   75  62  63 SE6       29.92F
6HR MIN TEMP:  63; 6HR MAX TEMP:  76;

GILMER         CLOUDY    76  64  65 SE12      29.91F
6HR MIN TEMP:  63; 6HR MAX TEMP:  77;

MINEOLA        CLOUDY    75  64  69 SE6       29.89F
TYLER          PTSUNNY   76  65  68 SE15      29.89F
6HR MIN TEMP:  66; 6HR MAX TEMP:  77;

LONGVIEW       PTSUNNY   77  67  71 SE13      29.91F
6HR MIN TEMP:  66; 6HR MAX TEMP:  77;

MARSHALL       PTSUNNY   76  63  63 S7        29.94F
6HR MIN TEMP:  65; 6HR MAX TEMP:  77;

ATHENS         CLOUDY    73  64  73 S7        29.87F
PALESTINE      PTSUNNY   79  69  72 SE7       29.89F
JACKSONVILLE   CLOUDY    76  67  74 SE8       29.93F
HENDERSON      CLOUDY    76  66  70 SE8       29.92F
6HR MIN TEMP:  67; 6HR MAX TEMP:  77;

NACOGDOCHES    MOSUNNY   81  66  61 SE10      29.89F
6HR MIN TEMP:  66; 6HR MAX TEMP:  81;

LUFKIN         MOSUNNY   82  65  56 SE15      29.90F
6HR MIN TEMP:  68; 6HR MAX TEMP:  82;

$$

SUPPLEMENTAL OBSERVATIONS (CENTRAL)

CITY           SKY/WX    TMP DP  RH WIND       PRES   REMARKS
DENISON DAM      N/A     64  59  82 E6          N/A
CADDO GRASSLND   N/A    N/A N/A N/A SE6         N/A
PAT MAYSE LAKE   N/A     66  63  88 E6          N/A
GREENVILLE       N/A     75  63  64 SE9         N/A
CEDAR HILL       N/A     73  64  73 E6G18       N/A
ATHENS           N/A     75  63  64 SE14        N/A
L



USA.gov is the U.S. government's official web portal to all federal, state and local government web resources and services.